Regional Weather Roundup
Issued by NWS

Home | Current Version | Previous Version | Text Only | Print | Product List | Glossary On
Versions: 1 2 3 4 5 6 7 8 9 10 11 12 13 14 15 16 17 18 19 20 21 22 23 24 25 26 27 28
000
ASUS46 KSEW 280910
RWRWA

WASHINGTON REGIONAL WEATHER ROUNDUP
NATIONAL WEATHER SERVICE SEATTLE WA
200 AM PDT SUN MAY 28 2017

NOTE:"FAIR" INDICATES FEW OR NO CLOUDS BELOW 12,000 FEET WITH NO
SIGNIFICANT WEATHER AND/OR OBSTRUCTIONS TO VISIBILITY.

WAZ507-509-555>559-281000-
SEATTLE, TACOMA, EVERETT, AND VICINITY

CITY           SKY/WX    TMP DP  RH WIND       PRES   REMARKS
EVERETT        CLEAR     60  47  61 NW3       30.08S
BOEING FIELD   CLEAR     65  49  56 CALM      30.06R
RENTON         CLEAR     62  55  77 CALM      30.05S
SEATAC AIRPORT CLEAR     63  48  58 N6        30.07S
JBLM-MCCHORD   CLEAR     54  51  91 S5        30.07R
PUYALLUP         N/A     55  55 100 CALM      30.07S
BREMERTON      CLEAR     53  49  86 CALM      30.07R
JBLM-FT LEWIS  CLEAR     58  49  71 S2        30.10R
TACOMA NARROWS CLEAR     60  47  61 CALM      30.07R
$$

WAZ001-503-506-510-514-515-281000-
NORTH INTERIOR

CITY           SKY/WX    TMP DP  RH WIND       PRES   REMARKS
BELLINGHAM     CLEAR     56  54  93 SE3       30.06S
FRIDAY HARBOR  CLEAR     49  48  97 CALM      30.08R
EASTSOUND      CLEAR     57  50  77 S6        30.06S
PORT ANGELES   CLEAR     51  47  86 CALM      30.08S
EDIZ HOOK      FAIR      53  47  82 W8        30.08R
PORT TOWNSEND  FAIR      48  46  93 CALM      30.08S
NAS WHIDBEY    CLEAR     51  44  77 S5        30.11S
ARLINGTON      CLEAR     57  45  62 CALM      30.09S
BURLINGTON     CLEAR     52  50  93 CALM      30.07S
$$

WAZ020-022-039-040-504-511-512-281000-
SOUTHWEST INTERIOR

CITY           SKY/WX    TMP DP  RH WIND       PRES   REMARKS
SHELTON        PTCLDY    52  50  93 W6        30.06S
OLYMPIA        CLEAR     55  52  89 CALM      30.07R
CHEHALIS       FAIR      55  55 100 CALM      30.08R
KELSO          CLOUDY    54  52  93 VRB5      30.11R
VANCOUVER      CLEAR     61  56  83 CALM      30.05R
SCAPPOOSE, OR  CLEAR     56  54  93 CALM      30.05R
PORTLAND, OR   CLEAR     63  55  75 W6        30.06R
$$

WAZ021-516-517-281000-
WASHINGTON COAST

CITY           SKY/WX    TMP DP  RH WIND       PRES   REMARKS
FORKS          CLEAR     48  46  93 CALM      30.10R
HOQUIAM        CLOUDY    53  52  96 W6        30.12R
ASTORIA, OR    CLOUDY    51  48  89 W7        30.13R
$$

WAZ019-023-024-040-567>569-281000-
CASCADE MOUNTAINS AND COLUMBIA GORGE

CITY           SKY/WX    TMP DP  RH WIND       PRES   REMARKS
STAMPEDE PASS  CLEAR     56  40  55 CALM      30.20F
TROUTDALE, OR  CLEAR     61  53  75 E3        30.05R
THE DALLES, OR CLEAR     58  47  66 CALM      30.06R
$$

WAZ026-027-041>044-520-521-281000-
EAST SLOPES

CITY           SKY/WX    TMP DP  RH WIND       PRES   REMARKS
OMAK           CLEAR     58  44  60 W7        30.11R
WENATCHEE      CLEAR     65  45  48 NW5       30.10R
ELLENSBURG     CLEAR     56  44  64 SE3       30.12R
YAKIMA         CLEAR     57  45  64 W7        30.10R
SUNNYSIDE ARPT SUNNY     53  46  79 CALM      30.08R
$$

WAZ028-034-035-281000-
COLUMBIA BASIN

CITY           SKY/WX    TMP DP  RH WIND       PRES   REMARKS
EPHRATA        CLEAR     62  41  46 NW7       30.09R
MOSES LAKE     CLEAR     55  45  68 N6        30.09S
PASCO          CLEAR     53  49  86 N7        30.06R
HERMISTON, OR  CLEAR     54  49  83 SE3       30.05R
$$

WAZ036>038-281000-
NORTHEAST WASHINGTON

CITY           SKY/WX    TMP DP  RH WIND       PRES   REMARKS
SPOKANE GEIGER CLEAR     61  45  55 CALM      30.14S
SPOKANE FELTS  CLEAR     54  48  80 CALM      30.14S
FAIRCHILD AFB  CLEAR     60  44  55 CALM      30.14S
COEURDALENE,ID CLEAR     52  47  83 NE5       30.16R
DEER PARK      CLEAR     49  45  86 CALM      30.15R
$$

WAZ029>033-281000-
SOUTHEAST WASHINGTON

CITY           SKY/WX    TMP DP  RH WIND       PRES   REMARKS
PULLMAN        CLEAR     54  44  69 CALM      30.16S
LEWISTON, ID   CLEAR     56  45  66 S5        30.12R
WALLA WALLA    CLEAR     65  45  48 SW7       30.06S
PENDLETON, OR  CLEAR     58  48  69 SE8       30.08S
$$




USA.gov is the U.S. government's official web portal to all federal, state and local government web resources and services.